Regional Weather Roundup
Issued by NWS Cleveland, OH

Home | Current Version | Previous Version | Text Only | Print | Product List | Glossary Off
Versions: 1 2 3 4 5 6 7 8 9 10 11 12 13 14 15 16 17 18 19 20 21 22 23 24 25 26 27 28 29 30 31 32 33 34 35 36 37 38 39 40 41 42 43 44 45 46 47 48 49 50

000
ASUS41 KCLE 240912
RWRCLE
OHIO REGIONAL WEATHER ROUNDUP
NATIONAL WEATHER SERVICE WILMINGTON, OH
500 AM EDT MON APR 24 2017

NOTE: "FAIR" INDICATES FEW OR NO CLOUDS BELOW 12,000 FEET WITH NO
SIGNIFICANT WEATHER AND/OR OBSTRUCTIONS TO VISIBILITY.

OHZ001>008-015>018-024>027-034-035-043-044-241000-
   NORTHWEST OHIO

CITY           SKY/WX    TMP DP  RH WIND       PRES   REMARKS
DEFIANCE       FAIR      40  32  73 NE3       30.03R
FINDLAY        FAIR      45  29  53 NE7       30.00S
TOLEDO EXPRESS FAIR      42  36  79 CALM      30.03S
TOLEDO EXEC    FAIR      48  41  76 NE7       30.05R
LIMA           FAIR      45  32  60 NE5       29.99S
$$

OHZ009>014-019>023-028>033-038-089-241000-
   NORTHEAST OHIO

CITY           SKY/WX    TMP DP  RH WIND       PRES   REMARKS
CLE-HOPKINS    FAIR      49  20  31 E6        30.05S
CLE-LAKEFRONT  FAIR      49  41  74 CALM      30.02F
CUY CO. ARPT   NOT AVBL
LORAIN-ELYRIA  FAIR      40  30  67 CALM      30.03S
ASHTABULA      FAIR      36  34  92 CALM      30.05F
AKRON-CANTON   FAIR      46  30  53 NE8       30.02R
WOOSTER        FAIR      44  31  60 E5        30.02S
MANSFIELD      FAIR      48  26  42 E7        30.00F
YOUNGSTOWN     FAIR      41  31  67 E8        30.03F
$$

OHZ042-051>053-060>062-070>072-077>081-241000-
  SOUTHWEST OHIO

CITY           SKY/WX    TMP DP  RH WIND       PRES   REMARKS
CINC-COVINGTON FAIR      51  37  58 N10       29.92S
CINC-LUNKEN    FAIR      47  42  83 NE3       29.94S
HAMILTON       FAIR      40  37  89 CALM      29.94F
DAYTON         FAIR      46  35  65 NE12      29.96F
WRIGHT-PAT AFB FAIR      44  37  76 NE10      29.95F
DAYTON GENERAL FAIR      47  37  68 NE8       29.93F
WILMINGTON     FAIR      46  38  73 NE9       29.93R
$$

OHZ036-037-039>041-045>050-054>059-063>069-073>076-082>088-241000-
  CENTRAL AND SOUTHEAST OHIO

CITY           SKY/WX    TMP DP  RH WIND       PRES   REMARKS
COLUMBUS       FAIR      48  37  65 NE3       29.95F
OSU AIRPORT    FAIR      45  37  73 N7        29.96F
BOLTON FIELD   FAIR      45  37  73 NE6       29.96F
RICKENBACK AFB FAIR      45  37  73 NE8       29.95S
NEWARK         FAIR      46  36  68 E3        29.96S
MARION         FAIR      42  31  64 NE5       30.00F
LANCASTER      FAIR      44  37  76 CALM      29.95F
ZANESVILLE     FAIR      48  32  53 N3        29.96F
NEW PHILLY     FAIR      42  40  92 CALM      30.00F
$$



USA.gov is the U.S. government's official web portal to all federal, state and local government web resources and services.